EW5676 Stony Brook NY US current weather conditions

sailwx.info

Wind from 128 at 3 knots gusting 6

Air temperature 20.0° C
Dewpoint 17.4° C

Last reported at 2020-May-27 15:03 UTC.
Time now 2020-May-27 15:25 UTC

Location: N 40°48' W 073°06'.
View on Google Maps.

See reports from other nearby stations

  
Tides and Currents Weather Stations Pressure Air Temp Water Temp Dewpoint Dewpoint Depression Visibility Wind Speed Wind Dir Waves Ship Positions
date/time (UTC)wind fromknots sea level pressurealtimeterstation pressurevisibilityair tempwater tempwave heightnotes
2020-May-27 15:03 128 3 gusting 6 20.0
2020-May-27 14:54 124 2 gusting 6 20.0
2020-May-27 14:45 119 4 gusting 9 19.4
2020-May-27 14:36 145 3 gusting 6 19.4
2020-May-27 14:27 159 2 gusting 6 19.4
2020-May-27 14:18 154 2 gusting 6 18.9
2020-May-27 14:09 149 2 gusting 6 18.3
2020-May-27 14:00 126 3 gusting 6 17.8
2020-May-27 13:51 103 2 gusting 5 17.8
2020-May-27 13:42 096 3 gusting 7 16.7
2020-May-27 13:33 093 2 gusting 6 17.2
2020-May-27 13:24 149 1 gusting 3 16.7
2020-May-27 13:15 117 1 gusting 5 16.7
2020-May-27 13:06 136 3 gusting 5 16.1
2020-May-27 12:57 138 1 gusting 4 16.1
2020-May-27 12:48 118 0 gusting 3 15.6
2020-May-27 12:39 130 0 gusting 4 15.6
2020-May-27 12:30 162 0 gusting 1 15.6
2020-May-27 12:21 171 15.6
2020-May-27 12:12 169 0 gusting 2 15.0
2020-May-27 12:03 171 0 gusting 2 15.0
2020-May-27 11:54 112 0 gusting 1 15.0
2020-May-27 11:45 102 0 gusting 2 15.0
2020-May-27 11:36 184 0 gusting 1 14.4
2020-May-27 11:27 125 0 gusting 1 14.4
2020-May-27 11:18 119 0 gusting 2 14.4
2020-May-27 11:09 155 0 gusting 2 14.4
2020-May-27 11:00 167 0 gusting 2 14.4
2020-May-27 10:51 151 0 gusting 1 14.4
2020-May-27 10:42 139 14.4
2020-May-27 10:33 139 13.9
2020-May-27 10:24 139 13.9
2020-May-27 10:15 139 13.9
2020-May-27 10:06 139 13.9
2020-May-27 09:57 139 13.9
2020-May-27 09:48 139 13.9
2020-May-27 09:39 139 13.9
2020-May-27 09:30 139 13.9
2020-May-27 09:21 139 13.9
2020-May-27 09:12 126 14.4
2020-May-27 09:03 144 14.4
2020-May-27 08:54 149 0 gusting 2 14.4
2020-May-27 08:45 154 0 gusting 3 14.4
2020-May-27 08:36 154 0 gusting 1 14.4
2020-May-27 08:27 142 14.4
2020-May-27 08:18 135 0 gusting 2 14.4
2020-May-27 08:09 150 1 gusting 3 14.4
2020-May-27 08:00 156 1 gusting 4 14.4
2020-May-27 07:51 144 1 gusting 3 14.4
2020-May-27 07:42 141 1 gusting 4 14.4
2020-May-27 07:33 121 1 gusting 6 15.0
2020-May-27 07:24 125 0 gusting 3 15.0
2020-May-27 07:15 112 1 gusting 3 15.0
2020-May-27 07:06 134 15.0
2020-May-27 06:57 136 1 gusting 3 15.0
2020-May-27 06:48 111 0 gusting 3 15.0
2020-May-27 06:39 111 0 gusting 2 15.0
2020-May-27 06:30 091 0 gusting 2 15.0
2020-May-27 06:21 119 0 gusting 1 15.0
2020-May-27 06:12 110 15.0
2020-May-27 06:03 15.0
2020-May-27 05:54 108 0 gusting 0 15.0
2020-May-27 05:45 117 15.0
2020-May-27 05:36 100 15.0
2020-May-27 05:27 112 15.0
2020-May-27 05:18 15.0
2020-May-27 05:09 15.0
2020-May-27 05:00 139 15.0
2020-May-27 04:51 217 15.0
2020-May-27 04:42 161 15.0
2020-May-27 04:33 162 0 gusting 2 14.4
2020-May-27 04:24 185 0 gusting 3 14.4
2020-May-27 04:15 162 1 gusting 4 15.0
2020-May-27 04:06 172 1 gusting 4 15.0
2020-May-27 03:57 158 2 gusting 4 15.0
2020-May-27 03:48 147 3 gusting 6 15.0
2020-May-27 03:39 157 2 gusting 5 15.0
2020-May-27 03:30 156 1 gusting 5 15.0
2020-May-27 03:21 163 0 gusting 3 15.0
2020-May-27 03:12 125 0 gusting 2 15.0
2020-May-27 03:03 136 1 gusting 3 15.0
2020-May-27 02:54 131 2 gusting 6 15.0
2020-May-27 02:45 133 2 gusting 7 15.0
2020-May-27 02:36 127 3 gusting 6 15.0
2020-May-27 02:27 120 2 gusting 5 15.0
2020-May-27 02:18 134 2 gusting 5 15.0
2020-May-27 02:09 142 2 gusting 6 15.0
2020-May-27 02:00 154 2 gusting 5 15.6
2020-May-27 01:51 161 2 gusting 6 15.6
2020-May-27 01:42 153 0 gusting 2 15.6
2020-May-27 01:33 137 0 gusting 4 15.6
2020-May-27 01:24 132 2 gusting 6 15.6
2020-May-27 01:15 130 2 gusting 5 15.6
2020-May-27 01:06 137 3 gusting 6 16.1
2020-May-27 00:57 131 2 gusting 6 16.1
2020-May-27 00:48 135 2 gusting 5 16.1
2020-May-27 00:39 123 2 gusting 5 16.7
2020-May-27 00:30 115 3 gusting 6 16.7
2020-May-27 00:21 133 1 gusting 6 17.2
2020-May-27 00:12 148 3 gusting 6 17.2
2020-May-27 00:03 142 3 gusting 6 17.8
2020-May-26 23:54 143 3 gusting 7 18.3
2020-May-26 23:45 151 2 gusting 5 18.3
2020-May-26 23:36 139 4 gusting 8 18.9
2020-May-26 23:27 130 3 gusting 6 18.9
2020-May-26 23:18 124 3 gusting 6 19.4
2020-May-26 23:09 133 5 gusting 8 19.4
2020-May-26 23:00 138 4 gusting 7 20.0
2020-May-26 22:51 131 4 gusting 8 20.6
2020-May-26 22:42 116 4 gusting 10 20.6
2020-May-26 22:33 120 4 gusting 9 21.1
2020-May-26 22:24 139 4 gusting 6 21.1
2020-May-26 22:15 126 4 gusting 8 21.7
2020-May-26 22:06 123 3 gusting 7 22.2
2020-May-26 21:57 136 3 gusting 6 22.2
2020-May-26 21:48 136 4 gusting 6 22.2
2020-May-26 21:39 143 3 gusting 6 22.8
2020-May-26 21:30 129 3 gusting 7 22.8
2020-May-26 21:21 119 4 gusting 7 22.8
2020-May-26 21:12 122 2 gusting 6 23.3
2020-May-26 21:03 149 3 gusting 6 23.3
2020-May-26 20:54 155 3 gusting 6 23.3
2020-May-26 20:45 125 4 gusting 6 23.3
2020-May-26 20:36 145 3 gusting 6 23.3
2020-May-26 20:27 134 2 gusting 5 23.3
2020-May-26 20:18 139 4 gusting 6 23.3
2020-May-26 20:09 123 2 gusting 5 23.3
2020-May-26 20:00 111 2 gusting 6 23.3
2020-May-26 19:51 153 3 gusting 6 23.3
2020-May-26 19:42 154 3 gusting 6 23.3
2020-May-26 19:33 148 2 gusting 6 23.3
2020-May-26 19:24 170 3 gusting 6 23.3
2020-May-26 19:15 141 4 gusting 9 23.3
2020-May-26 19:06 133 3 gusting 8 23.3
2020-May-26 18:57 172 1 gusting 5 23.9
2020-May-26 18:48 093 1 gusting 6 23.3
2020-May-26 18:39 099 2 gusting 6 22.8
2020-May-26 18:30 194 2 gusting 6 22.8
2020-May-26 18:21 151 5 gusting 10 22.2
2020-May-26 18:12 130 2 gusting 6 22.2
2020-May-26 18:03 203 1 gusting 6 22.8
2020-May-26 17:54 200 1 gusting 6 22.2
2020-May-26 17:27 091 3 gusting 7 20.6
2020-May-26 17:18 134 1 gusting 4 21.1
2020-May-26 17:09 153 2 gusting 6 20.6
2020-May-26 17:00 179 0 gusting 5 20.6
2020-May-26 16:51 089 2 gusting 5 19.4
2020-May-26 16:42 055 0 gusting 5 20.0
2020-May-26 16:33 090 2 gusting 6 19.4
2020-May-26 16:24 073 2 gusting 4 19.4
2020-May-26 16:15 041 0 gusting 3 19.4
2020-May-26 16:06 086 0 gusting 3 18.9
2020-May-26 15:57 190 0 gusting 3 18.9
2020-May-26 15:48 145 1 gusting 3 18.9
2020-May-26 15:39 136 0 gusting 2 18.9
2020-May-26 15:30 108 1 gusting 6 18.3
2020-May-26 15:21 095 18.3
2020-May-26 15:12 301 0 gusting 2 17.8
2020-May-26 15:03 286 0 gusting 2 17.8
2020-May-26 14:54 254 17.8
2020-May-26 14:45 065 17.2
2020-May-26 14:36 270 17.2
2020-May-26 14:27 295 16.7
2020-May-26 14:18 266 16.1
2020-May-26 14:09 266 1 gusting 2 16.1
2020-May-26 14:00 275 1 gusting 3 16.1
2020-May-26 13:51 275 0 gusting 2 15.6
2020-May-26 13:42 260 0 gusting 2 15.6
2020-May-26 13:33 293 0 gusting 2 15.6
2020-May-26 13:24 301 1 gusting 2 15.0
2020-May-26 13:15 306 0 gusting 2 15.0
2020-May-26 13:06 298 1 gusting 3 15.0
2020-May-26 12:57 267 1 gusting 4 15.0
2020-May-26 12:48 278 2 gusting 4 15.0
2020-May-26 12:39 275 2 gusting 4 15.6
2020-May-26 12:30 270 1 gusting 3 15.6
2020-May-26 12:21 321 15.6
2020-May-26 12:12 099 16.1
2020-May-26 12:03 15.6
2020-May-26 11:54 205 15.6
2020-May-26 11:45 266 15.6
2020-May-26 11:36 294 15.0
2020-May-26 11:27 15.0
2020-May-26 11:18 294 15.0
2020-May-26 11:09 279 14.4
2020-May-26 11:00 267 14.4
2020-May-26 10:51 270 14.4
2020-May-26 10:42 14.4
2020-May-26 10:33 279 14.4
2020-May-26 10:24 14.4
2020-May-26 10:15 14.4
2020-May-26 10:06 14.4
2020-May-26 09:57 14.4
2020-May-26 09:48 14.4
2020-May-26 09:39 14.4
2020-May-26 09:30 14.4
2020-May-26 09:21 14.4
2020-May-26 09:12 14.4
2020-May-26 09:03 15.0
2020-May-26 08:54 15.0
2020-May-26 08:45 15.0
2020-May-26 08:36 15.0
2020-May-26 08:27 15.0
2020-May-26 08:18 14.4
2020-May-26 08:09 15.0
2020-May-26 08:00 15.0
2020-May-26 07:51 15.0
2020-May-26 07:42 14.4
2020-May-26 07:33 15.0
2020-May-26 07:24 15.0
2020-May-26 07:15 311 15.0
2020-May-26 07:06 308 15.0
2020-May-26 06:57 322 15.0
2020-May-26 06:48 286 15.0
2020-May-26 06:39 287 15.0
2020-May-26 06:30 282 0 gusting 1 15.6
2020-May-26 06:21 294 15.6
2020-May-26 06:12 296 15.6
2020-May-26 06:03 16.1
2020-May-26 05:54 298 16.1
2020-May-26 05:45 16.1
2020-May-26 05:36 16.1
2020-May-26 05:27 16.1
2020-May-26 05:18 359 16.1
2020-May-26 05:09 358 16.1
2020-May-26 05:00 006 16.1
2020-May-26 04:51 034 16.1
2020-May-26 04:42 034 16.1
2020-May-26 04:33 034 16.1
2020-May-26 04:24 007 16.1